Location: Poughquag
(41.6090°N, 73.6820°W)
Time: 20:53:09
(UTC-04:00)

JY1SAT - Pass Details

Date: 16 September 2024
Orbit: 527 x 537 km, 97.5° (Epoch: 10 October)

Event Time Altitude Azimuth Distance (km) Brightness Sun altitude
Exits shadow 20:59:07 13° 29° (NNE) 1,609 ? -22.1°
Drops below altitude 10° 20:59:46 10° 21° (NNE) 1,793 ? -22.2°
Sets 21:02:20 0° 4° (N) 2,693 ? -22.7°
